Starlink 11416

operational
NORAD ID: 62594 Int'l Des: 2025-008 Owner: SPXS Country: US Constellation: starlink
LEOCIRCULAR

About Starlink 11416

Description loading...

Live Position

Loading 3D Globe...

Upcoming Passes

Altitude History

Altitude vs Time

uPlot chart will show altitude changes over time

Two-Line Element Set

1 62594U 25008H 25353.10373281 .00143631 00000-0 11023-2 0 9991
2 62594 43.0022 251.5631 0001807 282.2123 77.8542 15.70869078 54449
Epoch: Dec 19, 2025 • Age: 15 hours

Current Status

Altitude 365.6 km
Velocity 7.69 km/s
Sub-Earth Point -37.10°S, 156.81°W
Launch Date Jan 13, 2025
Age 0.9 years
Type internet

Technical Details

Classification Payload
Mass 960.00 kg
Dry Mass 910.00 kg
Total Mass 960.00 kg
Length 0.30 m
Diameter 4.10 m
Span 29.00 m
Shape Box + pan
Manufacturer SPXS
Bus Type Starlink V2MD
Phase Status In Orbit
Owner/State SPXS/US

Large Constellations

Loading constellations...